Time,TemperatureF,DewpointF,PressureIn,WindDirection,WindDirectionDegrees,WindSpeedMPH,WindSpeedGustMPH,Humidity,HourlyPrecipIn,Conditions,Clouds,dailyrainin,SolarRadiationWatts/m^2,SoftwareType,DateUTC
2013-03-21 00:02:00,42.0,42.0,-100.00,West,274,3.0,7.0,100,0.00,,,-99.99,0.000000,,2013-03-21 10:02:00,
2013-03-21 00:12:00,42.0,42.0,-100.00,West,274,3.0,7.0,100,0.00,,,-99.99,0.000000,,2013-03-21 10:12:00,
2013-03-21 00:22:00,42.0,42.0,-100.00,West,274,3.0,7.0,100,0.00,,,-99.99,0.000000,,2013-03-21 10:22:00,
2013-03-21 00:32:00,42.0,42.0,-100.00,West,274,3.0,7.0,100,0.00,,,-99.99,0.000000,,2013-03-21 10:32:00,
2013-03-21 00:53:00,45.0,45.0,-100.00,West,277,5.0,7.0,100,0.00,,,-99.99,0.000000,,2013-03-21 10:53:00,
2013-03-21 01:02:00,45.0,45.0,-100.00,West,277,5.0,7.0,100,0.00,,,-99.99,0.000000,,2013-03-21 11:02:00,
2013-03-21 01:12:00,45.0,45.0,-100.00,West,277,5.0,7.0,100,0.00,,,-99.99,0.000000,,2013-03-21 11:12:00,
2013-03-21 01:22:00,45.0,45.0,-100.00,West,277,5.0,7.0,100,0.00,,,-99.99,0.000000,,2013-03-21 11:22:00,
2013-03-21 01:32:00,45.0,45.0,-100.00,West,277,5.0,7.0,100,0.00,,,-99.99,0.000000,,2013-03-21 11:32:00,
2013-03-21 02:02:00,45.0,45.0,-100.00,West,273,3.0,8.0,100,0.00,,,-99.99,0.000000,,2013-03-21 12:02:00,
2013-03-21 02:12:00,45.0,45.0,-100.00,West,273,3.0,8.0,100,0.00,,,-99.99,0.000000,,2013-03-21 12:12:00,
2013-03-21 02:22:00,45.0,45.0,-100.00,West,273,3.0,8.0,100,0.00,,,-99.99,0.000000,,2013-03-21 12:22:00,
2013-03-21 02:32:00,45.0,45.0,-100.00,West,273,3.0,8.0,100,0.00,,,-99.99,0.000000,,2013-03-21 12:32:00,
2013-03-21 03:02:00,42.0,42.0,-100.00,West,278,2.0,6.0,100,0.00,,,-99.99,0.000000,,2013-03-21 13:02:00,
2013-03-21 03:12:00,42.0,42.0,-100.00,West,278,2.0,6.0,100,0.00,,,-99.99,0.000000,,2013-03-21 13:12:00,
2013-03-21 03:22:00,42.0,42.0,-100.00,West,278,2.0,6.0,100,0.00,,,-99.99,0.000000,,2013-03-21 13:22:00,
2013-03-21 03:32:00,42.0,42.0,-100.00,West,278,2.0,6.0,100,0.00,,,-99.99,0.000000,,2013-03-21 13:32:00,
2013-03-21 03:52:00,46.0,46.0,-100.00,WNW,284,0.0,7.0,100,0.00,,,-99.99,0.000000,,2013-03-21 13:52:00,
2013-03-21 04:02:00,46.0,46.0,-100.00,WNW,284,0.0,7.0,100,0.00,,,-99.99,0.000000,,2013-03-21 14:02:00,
2013-03-21 04:12:00,46.0,46.0,-100.00,WNW,284,0.0,7.0,100,0.00,,,-99.99,0.000000,,2013-03-21 14:12:00,
2013-03-21 04:21:00,46.0,46.0,-100.00,WNW,284,0.0,7.0,100,0.00,,,-99.99,0.000000,,2013-03-21 14:21:00,
2013-03-21 04:32:00,46.0,46.0,-100.00,WNW,284,0.0,7.0,100,0.00,,,-99.99,0.000000,,2013-03-21 14:32:00,
2013-03-21 05:03:00,42.0,42.0,-100.00,West,266,3.0,5.0,99,0.00,,,-99.99,0.000000,,2013-03-21 15:03:00,
2013-03-21 05:12:00,42.0,42.0,-100.00,West,266,3.0,5.0,99,0.00,,,-99.99,0.000000,,2013-03-21 15:12:00,
2013-03-21 05:22:00,42.0,42.0,-100.00,West,266,3.0,5.0,99,0.00,,,-99.99,0.000000,,2013-03-21 15:22:00,
2013-03-21 05:32:00,42.0,42.0,-100.00,West,266,3.0,5.0,99,0.00,,,-99.99,0.000000,,2013-03-21 15:32:00,
2013-03-21 06:03:00,43.0,43.0,-100.00,West,279,3.0,5.0,99,0.01,,,-99.99,0.000000,,2013-03-21 16:03:00,
2013-03-21 06:12:00,43.0,43.0,-100.00,West,279,3.0,5.0,99,0.01,,,-99.99,0.000000,,2013-03-21 16:12:00,
2013-03-21 06:22:00,43.0,43.0,-100.00,West,279,3.0,5.0,99,0.01,,,-99.99,0.000000,,2013-03-21 16:22:00,
2013-03-21 06:32:00,43.0,43.0,-100.00,West,279,3.0,5.0,99,0.01,,,-99.99,0.000000,,2013-03-21 16:32:00,
2013-03-21 07:02:00,45.0,45.0,-100.00,West,264,3.0,7.0,99,0.00,,,-99.99,0.000000,,2013-03-21 17:02:00,
2013-03-21 07:12:00,45.0,45.0,-100.00,West,264,3.0,7.0,99,0.00,,,-99.99,0.000000,,2013-03-21 17:12:00,
2013-03-21 07:23:00,45.0,45.0,-100.00,West,264,3.0,7.0,99,0.00,,,-99.99,0.000000,,2013-03-21 17:23:00,
2013-03-21 07:32:00,45.0,45.0,-100.00,West,264,3.0,7.0,99,0.00,,,-99.99,0.000000,,2013-03-21 17:32:00,
2013-03-21 08:02:00,50.0,50.0,-100.00,SW,229,3.0,7.0,99,0.00,,,-99.99,48.000000,,2013-03-21 18:02:00,
2013-03-21 08:12:00,50.0,50.0,-100.00,SW,229,3.0,7.0,99,0.00,,,-99.99,48.000000,,2013-03-21 18:12:00,
2013-03-21 08:22:00,50.0,50.0,-100.00,SW,229,3.0,7.0,99,0.00,,,-99.99,48.000000,,2013-03-21 18:22:00,
2013-03-21 08:32:00,50.0,50.0,-100.00,SW,229,3.0,7.0,99,0.00,,,-99.99,48.000000,,2013-03-21 18:32:00,
2013-03-21 09:02:00,56.0,54.0,-100.00,South,174,5.0,9.0,94,0.00,,,-99.99,256.000000,,2013-03-21 19:02:00,
2013-03-21 09:12:00,56.0,54.0,-100.00,South,174,5.0,9.0,94,0.00,,,-99.99,256.000000,,2013-03-21 19:12:00,
2013-03-21 09:22:00,56.0,54.0,-100.00,South,174,5.0,9.0,94,0.00,,,-99.99,256.000000,,2013-03-21 19:22:00,
2013-03-21 09:31:00,56.0,54.0,-100.00,South,174,5.0,9.0,94,0.00,,,-99.99,256.000000,,2013-03-21 19:31:00,
2013-03-21 10:02:00,61.0,56.0,-100.00,SSE,154,6.0,10.0,83,0.00,,,0.24,497.000000,,2013-03-21 20:02:00,
2013-03-21 10:12:00,61.0,56.0,-100.00,SSE,154,6.0,10.0,83,0.00,,,0.24,497.000000,,2013-03-21 20:12:00,
2013-03-21 10:22:00,61.0,56.0,-100.00,SSE,154,6.0,10.0,83,0.00,,,0.24,497.000000,,2013-03-21 20:22:00,
2013-03-21 10:32:00,61.0,56.0,-100.00,SSE,154,6.0,10.0,83,0.00,,,0.24,497.000000,,2013-03-21 20:32:00,
2013-03-21 11:02:00,64.0,51.0,-100.00,SSE,163,6.0,12.0,63,0.00,,,0.24,778.000000,,2013-03-21 21:02:00,
2013-03-21 11:12:00,64.0,51.0,-100.00,SSE,163,6.0,12.0,63,0.00,,,0.24,778.000000,,2013-03-21 21:12:00,
2013-03-21 11:22:00,64.0,51.0,-100.00,SSE,163,6.0,12.0,63,0.00,,,0.24,778.000000,,2013-03-21 21:22:00,
2013-03-21 11:32:00,64.0,51.0,-100.00,SSE,163,6.0,12.0,63,0.00,,,0.24,778.000000,,2013-03-21 21:32:00,
2013-03-21 12:02:00,66.0,51.0,-100.00,SSE,168,7.0,14.0,58,0.00,,,0.23,1074.000000,,2013-03-21 22:02:00,
2013-03-21 12:12:00,66.0,51.0,-100.00,SSE,168,7.0,14.0,58,0.00,,,0.23,1074.000000,,2013-03-21 22:12:00,
2013-03-21 12:23:00,66.0,51.0,-100.00,SSE,168,7.0,14.0,58,0.00,,,0.23,1074.000000,,2013-03-21 22:23:00,
2013-03-21 12:33:00,66.0,51.0,-100.00,SSE,168,7.0,14.0,58,0.00,,,0.23,1074.000000,,2013-03-21 22:33:00,
2013-03-21 13:02:00,64.0,52.0,-100.00,SSE,159,8.0,15.0,65,0.00,,,0.18,1036.000000,,2013-03-21 23:02:00,
2013-03-21 13:12:00,64.0,52.0,-100.00,SSE,159,8.0,15.0,65,0.00,,,0.18,1036.000000,,2013-03-21 23:12:00,
2013-03-21 13:21:00,64.0,52.0,-100.00,SSE,159,8.0,15.0,65,0.00,,,0.18,1036.000000,,2013-03-21 23:21:00,
2013-03-21 13:32:00,64.0,52.0,-100.00,SSE,159,8.0,15.0,65,0.00,,,0.18,1036.000000,,2013-03-21 23:32:00,
2013-03-21 13:53:00,64.0,51.0,-100.00,SSE,162,8.0,13.0,62,0.00,,,0.13,572.000000,,2013-03-21 23:53:00,
2013-03-21 14:02:00,64.0,51.0,-100.00,SSE,162,8.0,13.0,62,0.00,,,0.13,572.000000,,2013-03-22 00:02:00,
2013-03-21 14:12:00,64.0,51.0,-100.00,SSE,162,8.0,13.0,62,0.00,,,0.13,572.000000,,2013-03-22 00:12:00,
2013-03-21 14:22:00,64.0,51.0,-100.00,SSE,162,8.0,13.0,62,0.00,,,0.13,572.000000,,2013-03-22 00:22:00,
2013-03-21 14:31:00,64.0,51.0,-100.00,SSE,162,8.0,13.0,62,0.00,,,0.13,572.000000,,2013-03-22 00:31:00,
2013-03-21 15:02:00,68.0,54.0,-100.00,South,175,7.0,14.0,62,0.00,,,0.08,849.000000,,2013-03-22 01:02:00,
2013-03-21 15:12:00,68.0,54.0,-100.00,South,175,7.0,14.0,62,0.00,,,0.08,849.000000,,2013-03-22 01:12:00,
2013-03-21 15:22:00,68.0,54.0,-100.00,South,175,7.0,14.0,62,0.00,,,0.08,849.000000,,2013-03-22 01:22:00,
2013-03-21 15:32:00,68.0,54.0,-100.00,South,175,7.0,14.0,62,0.00,,,0.08,849.000000,,2013-03-22 01:32:00,
2013-03-21 15:53:00,63.0,50.0,-100.00,SSE,149,7.0,14.0,62,0.00,,,0.02,570.000000,,2013-03-22 01:53:00,
2013-03-21 16:02:00,63.0,50.0,-100.00,SSE,149,7.0,14.0,62,0.00,,,0.02,570.000000,,2013-03-22 02:02:00,
2013-03-21 16:12:00,63.0,50.0,-100.00,SSE,149,7.0,14.0,62,0.00,,,0.02,570.000000,,2013-03-22 02:12:00,
2013-03-21 16:22:00,63.0,50.0,-100.00,SSE,149,7.0,14.0,62,0.00,,,0.02,570.000000,,2013-03-22 02:22:00,
2013-03-21 16:32:00,63.0,50.0,-100.00,SSE,149,7.0,14.0,62,0.00,,,0.02,570.000000,,2013-03-22 02:32:00,
2013-03-21 16:52:00,60.0,51.0,-100.00,SSE,157,6.0,12.0,72,0.00,,,0.01,408.000000,,2013-03-22 02:52:00,
2013-03-21 17:02:00,60.0,51.0,-100.00,SSE,157,6.0,12.0,72,0.00,,,0.01,408.000000,,2013-03-22 03:02:00,
2013-03-21 17:12:00,60.0,51.0,-100.00,SSE,157,6.0,12.0,72,0.00,,,0.01,408.000000,,2013-03-22 03:12:00,
2013-03-21 17:21:00,60.0,51.0,-100.00,SSE,157,6.0,12.0,72,0.00,,,0.01,408.000000,,2013-03-22 03:21:00,
2013-03-21 17:32:00,60.0,51.0,-100.00,SSE,157,6.0,12.0,72,0.00,,,0.01,408.000000,,2013-03-22 03:32:00,
2013-03-21 18:03:00,57.0,51.0,-100.00,South,180,3.0,10.0,81,0.00,,,0.01,210.000000,,2013-03-22 04:03:00,
2013-03-21 18:12:00,57.0,51.0,-100.00,South,180,3.0,10.0,81,0.00,,,0.01,210.000000,,2013-03-22 04:12:00,
2013-03-21 18:22:00,57.0,51.0,-100.00,South,180,3.0,10.0,81,0.00,,,0.01,210.000000,,2013-03-22 04:22:00,
2013-03-21 18:32:00,57.0,51.0,-100.00,South,180,3.0,10.0,81,0.00,,,0.01,210.000000,,2013-03-22 04:32:00,
2013-03-21 19:02:00,53.0,52.0,-100.00,SSW,208,2.0,6.0,98,0.00,,,0.01,62.000000,,2013-03-22 05:02:00,
2013-03-21 19:12:00,53.0,52.0,-100.00,SSW,208,2.0,6.0,98,0.00,,,0.01,62.000000,,2013-03-22 05:12:00,
2013-03-21 19:22:00,53.0,52.0,-100.00,SSW,208,2.0,6.0,98,0.00,,,0.01,62.000000,,2013-03-22 05:22:00,
2013-03-21 19:32:00,53.0,52.0,-100.00,SSW,208,2.0,6.0,98,0.00,,,0.01,62.000000,,2013-03-22 05:32:00,
2013-03-21 19:52:00,48.0,48.0,-100.00,WSW,254,3.0,6.0,99,0.00,,,0.01,0.000000,,2013-03-22 05:52:00,
2013-03-21 20:02:00,48.0,48.0,-100.00,WSW,254,3.0,6.0,99,0.00,,,0.01,0.000000,,2013-03-22 06:02:00,
2013-03-21 20:12:00,48.0,48.0,-100.00,WSW,254,3.0,6.0,99,0.00,,,0.01,0.000000,,2013-03-22 06:12:00,
2013-03-21 20:22:00,48.0,48.0,-100.00,WSW,254,3.0,6.0,99,0.00,,,0.01,0.000000,,2013-03-22 06:22:00,
2013-03-21 20:32:00,48.0,48.0,-100.00,WSW,254,3.0,6.0,99,0.00,,,0.01,0.000000,,2013-03-22 06:32:00,
2013-03-21 21:02:00,46.0,46.0,-100.00,West,272,4.0,8.0,99,0.00,,,0.01,0.000000,,2013-03-22 07:02:00,
2013-03-21 21:12:00,46.0,46.0,-100.00,West,272,4.0,8.0,99,0.00,,,0.01,0.000000,,2013-03-22 07:12:00,
2013-03-21 21:22:00,46.0,46.0,-100.00,West,272,4.0,8.0,99,0.00,,,0.01,0.000000,,2013-03-22 07:22:00,
2013-03-21 21:32:00,46.0,46.0,-100.00,West,272,4.0,8.0,99,0.00,,,0.01,0.000000,,2013-03-22 07:32:00,
2013-03-21 22:02:00,44.0,43.0,-100.00,West,280,3.0,6.0,98,0.00,,,0.01,0.000000,,2013-03-22 08:02:00,
2013-03-21 22:12:00,44.0,43.0,-100.00,West,280,3.0,6.0,98,0.00,,,0.01,0.000000,,2013-03-22 08:12:00,
2013-03-21 22:22:00,44.0,43.0,-100.00,West,280,3.0,6.0,98,0.00,,,0.01,0.000000,,2013-03-22 08:22:00,
2013-03-21 22:32:00,44.0,43.0,-100.00,West,280,3.0,6.0,98,0.00,,,0.01,0.000000,,2013-03-22 08:32:00,
2013-03-21 23:02:00,42.0,41.0,-100.00,WNW,296,3.0,6.0,97,0.00,,,0.01,0.000000,,2013-03-22 09:02:00,
2013-03-21 23:12:00,42.0,41.0,-100.00,WNW,296,3.0,6.0,97,0.00,,,0.01,0.000000,,2013-03-22 09:12:00,
2013-03-21 23:22:00,42.0,41.0,-100.00,WNW,296,3.0,6.0,97,0.00,,,0.01,0.000000,,2013-03-22 09:22:00,
2013-03-21 23:32:00,42.0,41.0,-100.00,WNW,296,3.0,6.0,97,0.00,,,0.01,0.000000,,2013-03-22 09:32:00,